Reflectivity
-20 -20 -20 -20 -20 -20 -20 -20 -20 -20 -20 -20 -20 -20 -20 -20 -20 -20 -20 -20 -20 -20 -20 -20 -20 -20 -20 -20 -20 -20 -20 -20 -2 0 -20 -20 -20 27 -20 -20 -20 -20 -20 -20
-20 -20 -20 -20 -20 -20 -20 -20 -20 -20 -20 -20 -20 -20 -20 -20 -20 -20 -20 -20 -20 -20 -20 -20 -20 -20 -20 -20 -20 -20 -20 -20 -20 -20 -20 -20 -20 -20 -20 -20 -20 -20 -20 -20
-20 -20 -20 -20 -20 -20 -20 -20 -20 -20 -20 -20 -20 -20 -20 -20 -20 -20 -20 -20 -20 -20 -20 -20 -20 -20 -20 -20 -20 -20 -20 -20 -20 -20 -20 -20 -20 -20 -20 -20 -20 -20 -20 -20
-20 -20 -20 -20 -20 -20 -20 -20 -20 -20 -20 -12 -20 1 -20 -20 -20 -20 -20 -20 -20 -20 -20 -20 -20 -20 -20 -20 -20 -20 -20 -20 -20 -20 -20 -20 -20 -20 -20 -10 -18 -20 -20 -20
-20 -20 -20 -20 -20 -20 -20 -20 -20 -20 -20 -20 -20 -20 -20 -20 -20 -20 -20 -20 -20 -20 -20 -20 -20 -20 -20 -20 -20 -20 -20 -20 -20 -20 -20 -20 -20 -20 -20 -20 -20 -20 -20 -20
-20 -20 -20 -20 -20 -20 -20 -20 -20 -20 -20 -20 -20 -20 -20 -20 -20 -20 -20 -20 -20 -20 -20 -20 -20 -20 -20 -20 -20 -20 -20 -20 -20 -20 -20 -20 -20 -20 -20 -20 -18 -20 -1 -7
-20 -20 -20 -20 -20 -20 -20 -20 -20 -20 -20 -20 -20 -20 -20 -20 -20 -20 -20 -20 -20 -20 -20 -20 -20 -20 -20 -20 -20 -20 -20 -20 -20 -20 -20 -20 -20 -17 10 18 13 21 24 14
-20 -20 -20 -20 -20 -20 -20 -20 -20 -17 -20 -20 -20 -20 -20 -20 -20 -20 -20 -20 -20 -20 -20 -20 -20 -20 -20 -20 -20 -20 -20 -20 -20 -20 -20 -20 -20 -20 12 -3 24 27 26 20
-20 -20 -20 -20 -20 -20 -20 -20 -20 -20 -20 -20 -20 -20 -20 -20 -20 -20 -20 -20 -20 -20 -20 -20 -20 -20 -20 -20 -20 -20 -20 -13 2 -20 -20 -20 -12 -15 -1 21 11 11 15 7
-20 -20 -20 -20 -20 -20 -20 -20 -20 -20 -19 -20 -20 -20 -20 -20 -20 -20 -20 -20 -20 -20 -20 -20 -20 -20 -20 -20 -20 -20 -20 -20 -6 -17 -20 -20 -20 -20 21 26 24 25 13 17
-20 -20 -20 -20 -20 -20 -20 -20 -20 -20 -20 -20 -20 -20 -20 -20 -20 -20 -20 -20 -20 -20 -20 -20 -20 -20 -20 -20 -20 -20 -20 -20 -18 -20 -20 -20 -18 1 10 18 20 22 16 6
-20 -20 -20 -20 -20 -20 -8 -9 -20 -20 -20 -20 -20 -20 -20 -20 -20 -20 -20 -20 -20 -20 -20 -20 -20 -20 -20 -20 -20 -20 -20 -20 -20 -20 -20 -20 -18 29 -11 -19 -9 -20 19 13
-20 -20 -20 -20 -20 -20 -20 -20 -20 -20 -20 -20 -20 -20 -20 -20 -20 -20 -20 -20 -20 -20 -20 -20 -20 -20 -20 -20 -20 -20 -20 -20 -20 -20 -20 -20 -17 -15 -17 -20 21 -20 -20 -20
-20 -20 -20 -20 -20 -20 -20 -20 -20 -20 -20 -20 -20 -20 -20 -20 -20 -20 -20 -20 -20 -20 -20 -20 -20 -20 -20 -20 -20 -20 -20 -20 -2 2 -20 -20 -20 -20 -9 -20 -20 -20 -20 -20
-20 -20 -20 -20 -20 -20 -20 -20 -20 -20 -20 -20 -20 -20 -20 -20 -20 -20 -20 -20 -20 -20 -20 -20 -20 -20 -20 -20 -20 -20 -20 -20 16 -20 -20 -20 -20 -20 -20 -20 -20 -20 -20 -20
-20 -20 -20 -20 -20 -20 -20 -20 -20 -20 -20 -20 -20 -20 -20 -20 -20 -20 -20 -20 -20 -20 -20 -20 -20 -20 -20 -20 -20 -20 -20 -20 -20 -20 -20 -20 -20 -20 -20 -20 -20 -20 -20 -10
-20 -20 -20 -20 -20 -20 -20 -20 -20 -20 -20 -20 -20 -20 -20 -20 -20 -20 -20 -20 -20 -20 -20 -20 -20 -20 -20 -20 -20 -20 -20 -20 -20 -20 -20 -20 -20 -20 -20 -20 -20 -20 -20 -18
-20 -20 -20 -20 -20 -20 -20 -20 -20 -20 -20 -20 -20 -20 -20 -20 -20 -20 -20 -20 -20 -20 -20 -20 -20 -20 -20 -20 -20 -20 -20 -20 -20 -20 -20 -20 -20 -20 -20 -20 -20 -20 -20 -20
-20 -20 -20 -20 -20 -20 -20 -20 -20 -20 -20 -20 -20 -20 -20 -20 -20 -20 -20 -20 -20 -20 -20 -20 -20 -20 -20 -20 -20 -20 -20 -20 -20 -20 -20 -20 -20 -20 -20 -20 -20 -20 -20 -20
-20 -20 -20 -20 -20 -20 -20 -20 -20 -20 -20 -20 -20 -20 -20 -20 -20 -20 -20 -20 -20 -20 -20 -20 -20 -20 -20 -20 -20 -20 -20 -20 -20 -20 -20 -20 -20 -20 -20 -20 -19 -1 -18 -5
-20 -20 -20 -20 -20 -20 -20 -20 -20 -20 -20 -20 -20 -20 -20 -20 -20 -20 -20 -20 -20 -20 -20 -20 -20 -20 -20 -20 -20 -20 -20 -20 -20 -20 -20 -20 -20 -20 -20 -16 -20 -20 -20 -18
-20 -20 -20 -20 -20 -20 -20 -20 -20 -20 -20 -20 -20 -20 -20 -20 -20 -20 -20 -20 -20 -20 -20 -20 -20 -20 -20 -20 -20 -20 -20 -20 -20 -20 -20 -20 -20 -20 -20 -20 -20 -20 -20 -20
-3 -18 -20 -20 -20 -20 -20 -20 -20 -20 -20 -20 -20 -20 -20 -20 -20 -20 -20 -20 -20 -20 -20 -20 -20 -20 -20 -20 -20 -20 -20 -20 -20 -20 -20 -20 -20 -20 -20 -20 -20 -20 -20 -20
-20 8 -18 -20 -20 -20 -20 -20 -20 -20 -20 -20 -20 -20 -20 -20 -20 -20 -20 -20 -20 -20 -20 -20 -20 -20 -20 -20 -20 -20 -20 -20 -20 -20 -20 -20 -20 -20 -20 -20 -20 -20 -20 -20
-14 9 -18 -20 -20 -20 -16 -20 -20 -20 -20 -20 -20 -20 -20 -20 -20 -20 -20 -20 -20 -20 -20 -20 -20 -20 -20 -20 -20 -20 -20 -20 -20 -20 -20 -20 -20 -20 -20 -20 -20 -20 -20 -20
-20 -20 -20 -20 -20 -14 -20 -20 -20 -20 -20 -20 -20 -20 -20 -20 -20 -20 -20 -20 -20 -20 -20 -20 -20 -20 -20 -20 -20 -20 -20 -20 -20 -20 -20 -20 -20 -20 -20 -20 -20 -20 -20 -20
Wind_Speed
9 11 12 12 7 2 3 4 5 1 4 5 6 5 10 12 12 12 12 13 13 14 13 14 15 16 17 17 17 17 17 15 11 9 9 9 9 8 7 7 10 10 9 11
7 12 6 4 5 8 8 6 4 4 2 5 6 8 5 14 14 13 13 13 14 14 15 15 16 16 16 17 17 17 17 17 14 10 9 8 8 8 7 7 8 10 10 12
13 4 5 7 8 9 8 8 4 3 2 4 5 8 11 12 13 12 13 13 15 16 17 17 17 18 18 18 18 17 17 16 15 14 10 8 6 5 7 7 7 11 12 12
11 3 7 7 7 9 10 9 3 4 6 3 4 4 7 11 15 15 15 16 15 16 17 17 19 20 20 20 18 18 17 17 15 17 13 15 11 10 8 8 9 10 12 12
9 10 10 9 7 9 4 7 4 4 3 5 6 7 8 5 13 18 19 19 19 18 18 19 19 19 19 19 19 17 18 18 17 17 16 13 15 10 8 9 12 11 10 10
10 1 6 6 3 8 8 7 5 4 3 6 4 7 6 7 9 6 12 19 21 20 21 21 19 19 18 18 18 18 19 19 18 18 19 18 16 13 10 12 11 9 7 7
16 13 6 5 7 6 13 10 9 7 7 7 2 6 9 4 4 7 6 8 17 20 19 20 21 20 19 21 20 19 20 21 20 19 19 19 17 14 16 13 10 10 10 7
15 16 13 10 13 8 18 16 8 6 6 4 4 6 3 1 2 7 9 9 9 12 18 22 22 21 20 20 21 20 20 21 20 20 20 16 16 10 11 11 8 6 6 7
16 17 5 5 4 7 7 11 2 3 1 5 5 5 10 4 3 3 3 3 5 7 11 15 17 18 18 18 20 21 21 19 20 20 16 17 15 16 13 13 11 8 10 11
9 12 7 8 5 4 8 11 7 5 7 8 6 5 4 4 1 0 3 3 2 2 3 7 9 11 13 15 16 17 18 19 17 16 15 14 15 15 11 10 12 11 11 13
13 11 8 7 11 12 6 6 3 4 4 6 5 5 2 5 4 4 2 3 6 5 1 3 5 6 8 10 12 13 15 15 15 15 14 14 13 8 9 11 12 13 14 14
20 11 12 12 3 7 9 12 13 8 8 1 3 7 5 8 6 5 6 3 3 6 3 2 4 6 7 8 9 10 11 12 12 10 10 9 10 11 12 12 11 11 12 9
15 13 12 15 7 5 9 11 11 4 0 9 6 4 5 4 7 7 7 5 6 4 1 5 6 6 7 7 6 6 6 6 6 5 7 8 9 9 9 9 8 9 11 11
19 15 19 13 14 12 12 13 14 14 9 11 11 14 7 10 11 11 5 3 5 3 3 4 7 6 6 6 6 5 5 3 3 6 6 7 7 7 8 8 9 11 12 12
13 19 16 17 17 18 19 16 18 18 16 16 13 15 10 11 11 4 0 2 4 4 5 6 7 7 8 8 7 6 7 5 4 5 5 4 4 4 5 6 7 6 7 8
7 10 12 16 15 13 16 18 18 19 20 14 16 15 11 12 6 7 3 7 8 9 9 10 10 11 10 9 9 8 8 7 6 6 6 5 5 4 4 5 6 7 9 9
7 8 7 14 7 7 7 17 17 18 17 16 16 16 13 9 11 8 7 9 12 13 12 11 11 10 11 10 10 11 10 8 8 8 7 6 6 6 6 7 7 8 9 9
6 8 5 5 5 8 8 1 17 19 18 16 14 12 11 8 3 5 7 11 13 12 11 11 10 10 10 11 11 11 11 11 11 10 10 8 8 9 9 9 9 10 9 10
10 7 5 5 9 10 5 6 9 13 16 17 19 16 7 7 11 7 6 10 11 11 10 10 10 10 11 11 11 12 13 13 12 12 12 11 10 10 10 9 9 8 8 7
6 6 8 5 8 9 9 12 11 5 14 13 11 14 13 15 10 8 13 12 12 11 10 11 11 11 12 11 11 13 13 13 13 12 12 12 11 11 10 8 6 4 2 1
5 5 11 10 6 7 4 8 11 10 12 1 8 9 15 16 5 20 17 14 12 11 12 11 11 12 12 11 12 15 14 15 13 12 11 11 10 9 8 7 6 4 2 2
9 10 6 7 6 11 12 10 12 12 2 4 7 10 15 10 16 19 17 16 15 15 14 13 12 12 12 12 13 15 14 11 11 11 10 9 8 5 4 4 4 3 4 4
6 6 4 10 7 3 20 14 16 6 5 6 9 11 15 17 18 19 18 17 15 15 13 13 13 14 12 12 12 13 11 10 10 9 9 8 7 7 6 6 5 3 5 4
8 5 5 3 11 10 11 13 6 10 7 5 8 15 19 20 20 19 18 16 15 15 14 14 15 14 13 11 11 11 10 9 9 9 8 7 7 6 6 4 4 4 5 5
5 10 9 10 9 2 10 15 14 10 6 7 11 16 20 21 20 20 18 17 16 15 14 13 13 13 14 12 11 10 9 8 9 8 7 6 5 5 4 5 5 5 7 7
8 7 8 7 9 9 12 7 14 14 15 13 17 18 18 19 21 20 18 16 16 16 15 14 14 15 13 12 11 9 8 7 7 7 6 5 4 4 4 4 2 10 6 6
Wind_Direction
206 238 224 216 210 309 286 250 248 63 111 248 226 211 180 182 206 193 200 199 196 192 184 186 192 187 189 195 196 198 197 202 202 198 192 189 196 191 198 191 189 185 182 184
214 237 224 188 194 224 239 218 177 168 24 253 220 242 190 189 207 209 203 201 211 203 191 192 193 195 201 194 199 201 201 201 204 200 202 204 206 195 206 194 193 194 187 191
244 115 162 199 183 204 224 202 153 303 150 225 237 227 203 206 208 214 219 215 211 206 202 198 202 203 203 207 204 206 205 205 204 209 198 192 185 197 198 202 189 204 196 191
237 167 230 210 214 225 208 205 174 163 213 233 236 229 196 189 208 214 219 218 218 214 209 207 204 208 209 209 209 212 212 210 203 207 201 200 205 205 203 204 206 196 196 192
201 191 195 215 220 204 237 161 245 275 225 250 179 256 111 201 214 216 214 213 216 216 213 217 213 209 207 205 207 209 213 213 207 205 214 208 219 214 193 194 205 203 194 197
230 159 225 225 180 216 139 161 159 196 190 237 200 258 190 183 225 218 215 215 213 214 216 218 215 211 211 203 204 204 210 210 213 210 212 220 223 214 194 196 195 193 190 195
203 209 190 206 219 193 201 219 224 227 193 244 153 231 259 216 223 266 269 249 217 218 217 218 216 213 211 205 204 204 206 210 209 211 218 219 222 211 211 195 195 182 197 194
207 201 203 183 236 235 211 216 227 242 224 204 178 232 229 60 319 274 276 269 265 228 218 220 218 217 213 211 204 206 209 213 209 212 216 214 217 206 210 200 182 189 198 185
203 220 137 200 196 234 173 221 266 194 49 263 245 232 266 243 227 228 261 245 250 251 241 231 228 217 216 210 208 210 210 210 212 211 215 213 213 215 209 204 189 189 190 196
189 217 192 138 172 162 265 140 180 216 211 224 187 254 250 257 212 282 285 312 346 227 226 228 229 223 215 216 210 212 215 215 214 209 212 218 212 214 203 205 201 195 197 199
203 226 152 171 204 207 172 191 223 275 267 243 244 251 189 249 252 288 303 304 307 322 4 154 194 197 201 202 204 208 213 213 213 213 212 215 218 195 199 199 207 214 214 201
206 215 222 212 96 293 273 233 207 224 193 250 288 267 267 261 280 265 245 234 298 301 348 82 134 159 168 181 191 198 210 210 212 214 212 215 195 210 209 216 220 215 214 182
172 209 213 215 196 192 223 206 223 203 345 231 244 256 155 214 256 239 253 245 240 291 258 141 137 159 152 155 165 180 193 208 209 185 207 211 210 215 216 210 211 194 185 182
177 201 217 222 226 212 208 215 214 218 230 250 238 282 253 259 260 265 234 258 233 222 188 152 142 140 127 133 152 162 161 175 171 193 197 201 210 214 220 206 204 205 198 194
201 217 215 229 240 243 236 237 216 223 237 257 268 249 260 284 276 282 112 216 167 152 134 126 126 118 114 112 115 112 110 127 148 152 160 145 176 199 212 214 214 203 199 175
188 210 209 221 233 237 241 240 247 232 245 259 261 264 263 263 237 246 197 162 141 126 115 106 102 99 90 90 93 102 103 100 107 96 85 91 120 140 142 134 142 153 157 153
178 202 194 232 215 230 253 238 234 232 233 239 244 248 261 238 232 224 182 161 141 130 120 107 96 87 84 82 85 88 91 91 89 90 92 96 102 106 121 134 140 134 126 119
182 191 190 216 182 221 242 254 224 230 238 231 259 264 265 270 131 172 167 153 138 129 121 112 103 94 85 84 83 87 85 84 84 82 84 87 93 101 106 110 114 120 128 135
221 185 176 176 215 258 198 193 187 201 239 233 243 254 214 163 142 144 144 140 127 120 111 102 98 96 91 86 86 88 84 83 82 79 79 81 86 90 97 102 112 119 137 146
180 243 234 174 220 235 248 209 202 219 253 246 243 258 192 170 205 169 156 141 129 122 117 113 105 97 92 89 92 92 90 87 83 83 85 87 90 92 95 100 98 109 108 95
168 183 206 212 233 242 207 161 161 207 258 93 235 236 189 197 240 131 140 136 131 125 122 117 109 104 104 109 107 98 95 90 92 91 84 77 71 66 64 67 61 74 107 184
198 173 179 204 215 244 146 142 207 229 212 211 206 200 195 142 127 136 140 140 138 134 133 124 116 109 106 106 103 98 95 99 98 97 94 92 93 98 108 100 76 48 19 344
247 235 212 211 211 181 183 209 220 231 215 193 196 175 165 152 150 150 147 146 143 139 135 131 122 112 104 103 106 107 106 104 102 98 93 89 82 70 55 46 29 13 2 351
207 187 244 238 224 221 202 219 227 206 199 190 194 172 164 158 156 151 148 146 147 145 142 133 128 118 110 105 103 105 107 109 108 99 90 83 66 63 49 46 26 16 11 355
229 160 211 244 252 256 237 231 218 199 195 186 174 169 172 156 159 154 152 154 151 145 141 137 127 123 119 115 108 106 110 112 105 100 91 84 70 56 59 57 27 21 55 17
190 192 193 228 235 217 260 247 205 198 193 183 167 165 165 165 158 157 154 152 150 146 140 134 129 125 123 118 112 104 98 106 118 109 95 62 71 55 38 27 91 112 77 26